Location: Caltech
(34.1382°N, 118.1253°W)
Time: 03:28:20
(UTC-07:00)

TMSAT-1 - Visible Passes

Search period start: 20 April 2018 00:00
Search period end: 30 April 2018 00:00
Orbit: 808 x 812 km, 98.6° (Epoch: 19 April)

Date Brightness Start Highest point End Pass type
(mag) Time Alt. Az. Time Alt. Az. Time Alt. Az.
20 Apr 10.5 03:08:29 10° N 03:11:19 31° N 03:11:19 31° N visible
21 Apr 10.7 02:44:46 10° NNE 02:47:28 31° NNE 02:47:28 31° NNE visible
21 Apr 11.3 04:28:06 10° NW 04:28:38 10° NW 04:28:38 10° NW visible
22 Apr 11.1 02:21:19 10° NNE 02:23:38 25° NE 02:23:38 25° NE visible
22 Apr 10.9 04:02:20 10° NNW 04:04:47 17° NW 04:04:47 17° NW visible
23 Apr 11.5 01:58:12 10° NE 01:59:47 17° NE 01:59:47 17° NE visible
23 Apr 10.5 03:37:53 10° N 03:40:56 26° NW 03:40:56 26° NW visible
24 Apr 11.9 01:35:42 10° ENE 01:35:56 11° ENE 01:35:56 11° ENE visible
24 Apr 10.3 03:13:51 10° N 03:17:05 35° NNW 03:17:05 35° NNW visible
25 Apr 10.3 02:50:05 10° NNE 02:53:15 38° NNE 02:53:15 38° NNE visible
26 Apr 10.7 02:26:33 10° NNE 02:29:23 31° NE 02:29:23 31° NE visible
26 Apr 10.9 04:07:56 10° NNW 04:10:33 16° WNW 04:10:33 16° WNW visible
27 Apr 11.2 02:03:21 10° NE 02:05:33 21° NE 02:05:33 21° NE visible
27 Apr 10.5 03:43:21 10° NNW 03:46:42 25° NW 03:46:42 25° NW visible
28 Apr 11.7 01:40:39 10° NE 01:41:42 13° ENE 01:41:42 13° ENE visible
28 Apr 10.1 03:19:14 10° N 03:22:51 37° NNW 03:22:51 37° NNW visible
29 Apr 10.0 02:55:24 10° N 02:58:59 44° N 02:58:59 44° N visible
